OPTUS D1

Last updated on Sept. 20, 2020, 5:45 a.m. UTC

1 29495U 06043B   20263.83791997 -.00000126  00000-0  00000-0 0  9998
2 29495   0.0361 304.0509 0003429 231.4613 285.3295  1.00271759 51103
UTC
Height (km)
Latitude
Longitude
Inclination
Orbital Period
UTC large
Height (km)
Speed (km/s)
/
Latitude / Longitude
Inclination (degrees)
Orbital Period (minutes)
Azimuth
Elevation
Range (km)
Doppler Factor
iOS Compass Heading
iOS Angle

Next 30 passes for location: Hong Kong

Rise time Rise Azimuth (degrees) Set time Set Azimuth (degrees) Duration Max altitude (degrees)

No matching passes for this satellites